Weather History for New River MCAS, NC

Change the Weather History Date:

Saturday, October 6, 2012

  Actual Average Record
Temperature  
Mean Temperature 70 °F -  
Max Temperature 84 °F 75 °F 89 °F (1997)
Min Temperature 57 °F 55 °F 44 °F (2010)
Cooling Degree Days 4    
Growing Degree Days 20 (Base 50)    
Moisture  
Dew Point 61 °F    
Average Humidity 78    
Maximum Humidity 100    
Minimum Humidity 46    
Precipitation  
Precipitation 0.01 in - - ()
Sea Level Pressure  
Sea Level Pressure 29.98 in    
Wind  
Wind Speed 2 mph (SW)    
Max Wind Speed 10 mph    
Max Gust Speed -    
Visibility 8 miles    
Events      
Averages and records for this station are not official NWS values.
T = Trace of Precipitation, MM = Missing Value Source: NWS Daily Summary

Daily Weather History Graph

Daily Weather History Graph

Search for Another Location

Airport:

Trip Planner

Search our weather history database for the weather conditions in past years. The results will help you decide how hot, cold, wet, or windy it might be!

Date:

Astronomy

Oct. 06, 2012 Rise Set
Actual Time 7:08 AM EDT 6:46 PM EDT
Civil Twilight 6:43 AM EDT 7:11 PM EDT
Nautical Twilight 6:14 AM EDT 7:40 PM EDT
Astronomical Twilight 5:44 AM EDT 8:09 PM EDT
Moon 11:10 PM EDT (10/6) 12:50 PM EDT (10/6)
Length of Visible Light 12h 28m
Length of Day
11h 37m
Waning Gibbous, 65% of the Moon is Illuminated
Oct 6
Waning Gibbous
Oct 8
Last Quarter
Oct 15
New
Oct 21
First Quarter
Oct 29
Full

Hourly Weather History & Observations

Time (EDT) Temp. Heat Index Dew Point Humidity Pressure Visibility Wind Dir Wind Speed Gust Speed Precip Events Conditions
12:56 AM 63.0 °F - 60.1 °F 90% 30.05 in 6.0 mi Calm Calm - N/A   Clear
1:56 AM 61.0 °F - 59.0 °F 93% 30.04 in 6.0 mi WSW 3.5 mph - N/A   Clear
2:56 AM 61.0 °F - 59.0 °F 93% 30.02 in 4.0 mi Calm Calm - 0.01 in   Clear
3:56 AM 59.0 °F - 57.0 °F 93% 30.01 in 10.0 mi Calm Calm - N/A   Clear
4:56 AM 59.0 °F - 57.9 °F 96% 30.01 in 5.0 mi Calm Calm - N/A   Clear
5:56 AM 59.0 °F - 55.9 °F 90% 30.01 in 9.0 mi Calm Calm - N/A   Clear
6:19 AM 59.0 °F - 57.2 °F 94% 30.00 in 2.0 mi Calm Calm - N/A   Clear
6:44 AM 57.2 °F - 55.4 °F 94% 30.00 in 5.0 mi Calm Calm - N/A   Clear
6:56 AM 57.9 °F - 55.9 °F 93% 30.00 in 4.0 mi Calm Calm - N/A   Clear
7:22 AM 57.2 °F - 57.2 °F 100% 30.00 in 2.5 mi Calm Calm - N/A   Clear
7:44 AM 59.0 °F - 57.2 °F 94% 30.00 in 5.0 mi Calm Calm - N/A   Clear
7:56 AM 60.1 °F - 57.9 °F 93% 30.01 in 4.0 mi Calm Calm - N/A   Clear
8:56 AM 69.1 °F - 63.0 °F 81% 30.01 in 10.0 mi West 3.5 mph - N/A   Clear
9:56 AM 73.0 °F - 64.0 °F 73% 30.01 in 10.0 mi West 4.6 mph - N/A   Clear
10:56 AM 77.0 °F - 62.1 °F 60% 30.01 in 10.0 mi WSW 5.8 mph - N/A   Clear
11:56 AM 80.1 °F 81.1 °F 61.0 °F 52% 29.99 in 10.0 mi West 9.2 mph - N/A   Clear
12:56 PM 81.0 °F 81.7 °F 61.0 °F 50% 29.96 in 10.0 mi Variable 4.6 mph - N/A   Clear
1:56 PM 82.0 °F 82.4 °F 60.1 °F 47% 29.93 in 10.0 mi West 6.9 mph - N/A   Partly Cloudy
2:56 PM 82.9 °F 83.2 °F 60.1 °F 46% 29.93 in 10.0 mi SSW 5.8 mph - N/A   Partly Cloudy
3:56 PM 82.0 °F 83.4 °F 64.0 °F 54% 29.91 in 10.0 mi SSW 8.1 mph - N/A   Partly Cloudy
4:56 PM 79.0 °F - 64.0 °F 60% 29.91 in 10.0 mi South 10.4 mph - N/A   Clear
5:56 PM 77.0 °F - 64.0 °F 64% 29.92 in 10.0 mi South 8.1 mph - N/A   Clear
6:56 PM 73.0 °F - 64.9 °F 76% 29.93 in 10.0 mi SSW 3.5 mph - N/A   Clear
7:56 PM 71.1 °F - 64.0 °F 78% 29.95 in 10.0 mi SSW 4.6 mph - N/A   Clear
8:56 PM 71.1 °F - 64.0 °F 78% 29.96 in 10.0 mi South 5.8 mph - N/A   Clear
9:56 PM 71.1 °F - 64.9 °F 81% 29.97 in 10.0 mi SSW 4.6 mph - N/A   Clear
10:56 PM 70.0 °F - 64.0 °F 81% 29.98 in 10.0 mi SW 3.5 mph - N/A   Clear
11:56 PM 69.1 °F - 64.0 °F 84% 29.96 in 10.0 mi SSW 3.5 mph - N/A   Clear